Time,TemperatureF,DewpointF,PressureIn,WindDirection,WindDirectionDegrees,WindSpeedMPH,WindSpeedGustMPH,Humidity,HourlyPrecipIn,Conditions,Clouds,dailyrainin,SoftwareType,DateUTC
2013-04-18 00:03:00,69.0,-99.9,30.16,NE,41,7.0,8.0,-999,-99.99,,,-99.99,,2013-04-18 04:03:00,
2013-04-18 00:13:00,69.0,-99.9,30.16,NE,45,5.0,6.0,-999,-99.99,,,-99.99,,2013-04-18 04:13:00,
2013-04-18 00:23:00,68.0,-99.9,30.16,NE,39,3.0,6.0,-999,-99.99,,,-99.99,,2013-04-18 04:23:00,
2013-04-18 00:33:00,68.0,-99.9,30.16,NNE,31,3.0,4.0,-999,-99.99,,,-99.99,,2013-04-18 04:33:00,
2013-04-18 00:43:00,68.0,-99.9,30.16,NE,37,3.0,4.0,-999,-99.99,,,-99.99,,2013-04-18 04:43:00,
2013-04-18 00:53:00,68.0,-99.9,30.16,NE,34,4.0,4.0,-999,-99.99,,,-99.99,,2013-04-18 04:53:00,
2013-04-18 01:02:00,68.0,-99.9,30.16,NE,34,4.0,4.0,-999,-99.99,,,-99.99,,2013-04-18 05:02:00,
2013-04-18 01:12:00,68.0,-99.9,30.16,East,90,2.0,4.0,-999,-99.99,,,-99.99,,2013-04-18 05:12:00,
2013-04-18 01:22:00,69.0,-99.9,30.15,East,80,5.0,6.0,-999,-99.99,,,-99.99,,2013-04-18 05:22:00,
2013-04-18 01:33:00,69.0,-99.9,30.15,East,86,5.0,9.0,-999,-99.99,,,-99.99,,2013-04-18 05:33:00,
2013-04-18 01:42:00,69.0,-99.9,30.14,East,81,7.0,9.0,-999,-99.99,,,-99.99,,2013-04-18 05:42:00,
2013-04-18 01:52:00,69.0,-99.9,30.14,ENE,76,7.0,10.0,-999,-99.99,,,-99.99,,2013-04-18 05:52:00,
2013-04-18 02:02:00,69.0,-99.9,30.14,East,79,7.0,9.0,-999,-99.99,,,-99.99,,2013-04-18 06:02:00,
2013-04-18 02:12:00,69.0,-99.9,30.13,East,87,5.0,7.0,-999,-99.99,,,-99.99,,2013-04-18 06:12:00,
2013-04-18 02:22:00,69.0,-99.9,30.13,ESE,102,4.0,6.0,-999,-99.99,,,-99.99,,2013-04-18 06:22:00,
2013-04-18 02:32:00,69.0,-99.9,30.13,East,81,5.0,6.0,-999,-99.99,,,-99.99,,2013-04-18 06:32:00,
2013-04-18 02:42:00,69.0,-99.9,30.12,East,101,4.0,5.0,-999,-99.99,,,-99.99,,2013-04-18 06:42:00,
2013-04-18 02:52:00,69.0,-99.9,30.11,East,93,4.0,6.0,-999,-99.99,,,-99.99,,2013-04-18 06:52:00,
2013-04-18 03:02:00,69.0,-99.9,30.11,East,79,4.0,5.0,-999,-99.99,,,-99.99,,2013-04-18 07:02:00,
2013-04-18 03:12:00,69.0,-99.9,30.11,East,82,4.0,5.0,-999,-99.99,,,-99.99,,2013-04-18 07:12:00,
2013-04-18 03:22:00,69.0,-99.9,30.10,East,80,5.0,6.0,-999,-99.99,,,-99.99,,2013-04-18 07:22:00,
2013-04-18 03:32:00,69.0,-99.9,30.10,East,90,3.0,6.0,-999,-99.99,,,-99.99,,2013-04-18 07:32:00,
2013-04-18 03:42:00,69.0,-99.9,30.10,East,84,4.0,6.0,-999,-99.99,,,-99.99,,2013-04-18 07:42:00,
2013-04-18 03:53:00,68.0,-99.9,30.10,East,95,3.0,5.0,-999,-99.99,,,-99.99,,2013-04-18 07:53:00,
2013-04-18 04:02:00,68.0,-99.9,30.10,East,95,3.0,4.0,-999,-99.99,,,-99.99,,2013-04-18 08:02:00,
2013-04-18 04:12:00,68.0,-99.9,30.10,ESE,105,3.0,4.0,-999,-99.99,,,-99.99,,2013-04-18 08:12:00,
2013-04-18 04:22:00,69.0,-99.9,30.10,East,81,2.0,4.0,-999,-99.99,,,-99.99,,2013-04-18 08:22:00,
2013-04-18 04:32:00,69.0,-99.9,30.10,East,88,2.0,4.0,-999,-99.99,,,-99.99,,2013-04-18 08:32:00,
2013-04-18 04:42:00,69.0,-99.9,30.10,NNE,32,2.0,2.0,-999,-99.99,,,-99.99,,2013-04-18 08:42:00,
2013-04-18 04:52:00,68.0,-99.9,30.10,NNE,21,3.0,4.0,-999,-99.99,,,-99.99,,2013-04-18 08:52:00,
2013-04-18 05:02:00,68.0,-99.9,30.10,NNE,12,3.0,4.0,-999,-99.99,,,-99.99,,2013-04-18 09:02:00,
2013-04-18 05:12:00,68.0,-99.9,30.10,NE,39,2.0,4.0,-999,-99.99,,,-99.99,,2013-04-18 09:12:00,
2013-04-18 05:22:00,68.0,-99.9,30.10,NE,52,3.0,4.0,-999,-99.99,,,-99.99,,2013-04-18 09:22:00,
2013-04-18 05:33:00,68.0,-99.9,30.10,North,10,2.0,5.0,-999,-99.99,,,-99.99,,2013-04-18 09:33:00,
2013-04-18 05:43:00,68.0,-99.9,30.10,NNE,30,2.0,2.0,-999,-99.99,,,-99.99,,2013-04-18 09:43:00,
2013-04-18 05:53:00,68.0,-99.9,30.10,North,2,0.0,2.0,-999,-99.99,,,-99.99,,2013-04-18 09:53:00,
2013-04-18 06:03:00,68.0,-99.9,30.09,North,-999,0.0,2.0,-999,-99.99,,,-99.99,,2013-04-18 10:03:00,
2013-04-18 06:12:00,68.0,-99.9,30.09,NE,46,2.0,2.0,-999,-99.99,,,-99.99,,2013-04-18 10:12:00,
2013-04-18 06:23:00,68.0,-99.9,30.10,NNE,31,2.0,2.0,-999,-99.99,,,-99.99,,2013-04-18 10:23:00,
2013-04-18 06:33:00,68.0,-99.9,30.10,North,8,1.0,3.0,-999,-99.99,,,-99.99,,2013-04-18 10:33:00,
2013-04-18 06:42:00,68.0,-99.9,30.11,NE,45,1.0,2.0,-999,-99.99,,,-99.99,,2013-04-18 10:42:00,
2013-04-18 06:53:00,68.0,-99.9,30.11,NE,39,-999.0,2.0,-999,-99.99,,,-99.99,,2013-04-18 10:53:00,
2013-04-18 07:03:00,67.0,-99.9,30.11,East,94,1.0,2.0,-999,-99.99,,,-99.99,,2013-04-18 11:03:00,
2013-04-18 07:12:00,67.0,-99.9,30.11,ESE,102,4.0,4.0,-999,-99.99,,,-99.99,,2013-04-18 11:12:00,
2013-04-18 07:22:00,68.0,-99.9,30.11,East,93,3.0,4.0,-999,-99.99,,,-99.99,,2013-04-18 11:22:00,
2013-04-18 07:33:00,68.0,-99.9,30.11,East,91,3.0,4.0,-999,-99.99,,,-99.99,,2013-04-18 11:33:00,
2013-04-18 07:42:00,69.0,-99.9,30.12,NE,46,3.0,3.0,-999,-99.99,,,-99.99,,2013-04-18 11:42:00,
2013-04-18 07:52:00,68.0,-99.9,30.12,NE,40,3.0,4.0,-999,-99.99,,,-99.99,,2013-04-18 11:52:00,
2013-04-18 08:02:00,69.0,-99.9,30.12,NE,43,4.0,4.0,-999,-99.99,,,-99.99,,2013-04-18 12:02:00,
2013-04-18 08:12:00,69.0,-99.9,30.13,ENE,58,3.0,4.0,-999,-99.99,,,-99.99,,2013-04-18 12:12:00,
2013-04-18 08:23:00,69.0,-99.9,30.13,NE,41,2.0,3.0,-999,-99.99,,,-99.99,,2013-04-18 12:23:00,
2013-04-18 08:32:00,69.0,-99.9,30.13,NE,55,3.0,4.0,-999,-99.99,,,-99.99,,2013-04-18 12:32:00,
2013-04-18 08:42:00,69.0,-99.9,30.13,NNE,32,4.0,4.0,-999,-99.99,,,-99.99,,2013-04-18 12:42:00,
2013-04-18 08:53:00,69.0,-99.9,30.13,NE,45,2.0,4.0,-999,-99.99,,,-99.99,,2013-04-18 12:53:00,
2013-04-18 09:03:00,70.0,-99.9,30.13,NE,39,4.0,5.0,-999,-99.99,,,-99.99,,2013-04-18 13:03:00,
2013-04-18 09:13:00,70.0,-99.9,30.14,ENE,65,3.0,5.0,-999,-99.99,,,-99.99,,2013-04-18 13:13:00,
2013-04-18 09:22:00,70.0,-99.9,30.14,ENE,63,5.0,5.0,-999,-99.99,,,-99.99,,2013-04-18 13:22:00,
2013-04-18 09:33:00,70.0,-99.9,30.14,NE,55,4.0,5.0,-999,-99.99,,,-99.99,,2013-04-18 13:33:00,
2013-04-18 09:43:00,71.0,-99.9,30.14,NE,55,5.0,5.0,-999,-99.99,,,-99.99,,2013-04-18 13:43:00,
2013-04-18 09:53:00,71.0,-99.9,30.14,ENE,67,6.0,7.0,-999,-99.99,,,-99.99,,2013-04-18 13:53:00,
2013-04-18 10:03:00,71.0,-99.9,30.14,NE,56,4.0,7.0,-999,-99.99,,,-99.99,,2013-04-18 14:03:00,
2013-04-18 10:13:00,71.0,-99.9,30.14,ENE,58,5.0,6.0,-999,-99.99,,,-99.99,,2013-04-18 14:13:00,
2013-04-18 10:22:00,71.0,-99.9,30.14,NE,55,5.0,6.0,-999,-99.99,,,-99.99,,2013-04-18 14:22:00,
2013-04-18 10:33:00,71.0,-99.9,30.14,ENE,61,6.0,6.0,-999,-99.99,,,-99.99,,2013-04-18 14:33:00,
2013-04-18 10:43:00,72.0,-99.9,30.15,ENE,61,6.0,7.0,-999,-99.99,,,-99.99,,2013-04-18 14:43:00,
2013-04-18 10:52:00,72.0,-99.9,30.15,ENE,64,5.0,6.0,-999,-99.99,,,-99.99,,2013-04-18 14:52:00,
2013-04-18 11:03:00,72.0,-99.9,30.14,ENE,59,8.0,9.0,-999,-99.99,,,-99.99,,2013-04-18 15:03:00,
2013-04-18 11:12:00,73.0,-99.9,30.14,ENE,71,7.0,9.0,-999,-99.99,,,-99.99,,2013-04-18 15:12:00,
2013-04-18 11:23:00,73.0,-99.9,30.15,ENE,75,5.0,7.0,-999,-99.99,,,-99.99,,2013-04-18 15:23:00,
2013-04-18 11:33:00,72.0,-99.9,30.14,ENE,60,10.0,11.0,-999,-99.99,,,-99.99,,2013-04-18 15:33:00,
2013-04-18 11:43:00,72.0,-99.9,30.14,ENE,66,9.0,10.0,-999,-99.99,,,-99.99,,2013-04-18 15:43:00,
2013-04-18 11:53:00,72.0,-99.9,30.14,ENE,62,9.0,11.0,-999,-99.99,,,-99.99,,2013-04-18 15:53:00,
2013-04-18 12:03:00,73.0,-99.9,30.14,ENE,64,7.0,11.0,-999,-99.99,,,-99.99,,2013-04-18 16:03:00,
2013-04-18 12:13:00,76.0,-99.9,30.14,ESE,104,8.0,13.0,-999,-99.99,,,-99.99,,2013-04-18 16:13:00,
2013-04-18 12:23:00,73.0,-99.9,30.14,ENE,65,12.0,15.0,-999,-99.99,,,-99.99,,2013-04-18 16:23:00,
2013-04-18 12:33:00,73.0,-99.9,30.13,ENE,64,10.0,13.0,-999,-99.99,,,-99.99,,2013-04-18 16:33:00,
2013-04-18 12:43:00,73.0,-99.9,30.14,ENE,60,11.0,13.0,-999,-99.99,,,-99.99,,2013-04-18 16:43:00,
2013-04-18 12:53:00,72.0,-99.9,30.13,ENE,65,11.0,12.0,-999,-99.99,,,-99.99,,2013-04-18 16:53:00,
2013-04-18 13:03:00,76.0,-99.9,30.13,SE,131,10.0,14.0,-999,-99.99,,,-99.99,,2013-04-18 17:03:00,
2013-04-18 13:13:00,76.0,-99.9,30.12,SE,137,11.0,15.0,-999,-99.99,,,-99.99,,2013-04-18 17:13:00,
2013-04-18 13:22:00,76.0,-99.9,30.12,ESE,109,6.0,11.0,-999,-99.99,,,-99.99,,2013-04-18 17:22:00,
2013-04-18 13:33:00,77.0,-99.9,30.12,ESE,122,8.0,15.0,-999,-99.99,,,-99.99,,2013-04-18 17:33:00,
2013-04-18 13:43:00,77.0,-99.9,30.11,ESE,104,10.0,14.0,-999,-99.99,,,-99.99,,2013-04-18 17:43:00,
2013-04-18 13:52:00,78.0,-99.9,30.11,ESE,123,8.0,15.0,-999,-99.99,,,-99.99,,2013-04-18 17:52:00,
2013-04-18 14:03:00,77.0,-99.9,30.11,ESE,117,10.0,14.0,-999,-99.99,,,-99.99,,2013-04-18 18:03:00,
2013-04-18 14:13:00,77.0,-99.9,30.11,ESE,121,8.0,14.0,-999,-99.99,,,-99.99,,2013-04-18 18:13:00,
2013-04-18 14:23:00,76.0,-99.9,30.11,SE,126,9.0,14.0,-999,-99.99,,,-99.99,,2013-04-18 18:23:00,
2013-04-18 14:33:00,77.0,-99.9,30.11,ESE,103,10.0,15.0,-999,-99.99,,,-99.99,,2013-04-18 18:33:00,
2013-04-18 14:43:00,77.0,-99.9,30.11,SE,124,10.0,16.0,-999,-99.99,,,-99.99,,2013-04-18 18:43:00,
2013-04-18 14:53:00,78.0,-99.9,30.11,ESE,104,8.0,13.0,-999,-99.99,,,-99.99,,2013-04-18 18:53:00,
2013-04-18 15:03:00,78.0,-99.9,30.11,ESE,122,8.0,13.0,-999,-99.99,,,-99.99,,2013-04-18 19:03:00,
2013-04-18 15:13:00,77.0,-99.9,30.10,SE,143,10.0,14.0,-999,-99.99,,,-99.99,,2013-04-18 19:13:00,
2013-04-18 15:22:00,78.0,-99.9,30.09,SE,127,11.0,16.0,-999,-99.99,,,-99.99,,2013-04-18 19:22:00,
2013-04-18 15:33:00,77.0,-99.9,30.09,ESE,123,10.0,16.0,-999,-99.99,,,-99.99,,2013-04-18 19:33:00,
2013-04-18 15:43:00,78.0,-99.9,30.09,ESE,123,8.0,14.0,-999,-99.99,,,-99.99,,2013-04-18 19:43:00,
2013-04-18 15:53:00,77.0,-99.9,30.09,SE,126,10.0,15.0,-999,-99.99,,,-99.99,,2013-04-18 19:53:00,
2013-04-18 16:03:00,77.0,-99.9,30.08,ESE,116,10.0,15.0,-999,-99.99,,,-99.99,,2013-04-18 20:03:00,
2013-04-18 16:12:00,77.0,-99.9,30.08,ESE,119,10.0,15.0,-999,-99.99,,,-99.99,,2013-04-18 20:12:00,
2013-04-18 16:22:00,77.0,-99.9,30.08,ESE,112,8.0,13.0,-999,-99.99,,,-99.99,,2013-04-18 20:22:00,
2013-04-18 16:32:00,77.0,-99.9,30.07,SE,125,8.0,12.0,-999,-99.99,,,-99.99,,2013-04-18 20:32:00,
2013-04-18 16:43:00,77.0,-99.9,30.07,ESE,119,8.0,14.0,-999,-99.99,,,-99.99,,2013-04-18 20:43:00,
2013-04-18 16:52:00,77.0,-99.9,30.07,ESE,122,8.0,13.0,-999,-99.99,,,-99.99,,2013-04-18 20:52:00,
2013-04-18 17:03:00,77.0,-99.9,30.07,ESE,113,9.0,13.0,-999,-99.99,,,-99.99,,2013-04-18 21:03:00,
2013-04-18 17:12:00,77.0,-99.9,30.07,ESE,106,10.0,13.0,-999,-99.99,,,-99.99,,2013-04-18 21:12:00,
2013-04-18 17:22:00,77.0,-99.9,30.07,ESE,104,7.0,12.0,-999,-99.99,,,-99.99,,2013-04-18 21:22:00,
2013-04-18 17:33:00,74.0,-99.9,30.07,ENE,75,10.0,12.0,-999,-99.99,,,-99.99,,2013-04-18 21:33:00,
2013-04-18 17:43:00,76.0,-99.9,30.06,East,92,8.0,12.0,-999,-99.99,,,-99.99,,2013-04-18 21:43:00,
2013-04-18 17:53:00,76.0,-99.9,30.06,East,92,9.0,13.0,-999,-99.99,,,-99.99,,2013-04-18 21:53:00,
2013-04-18 18:03:00,76.0,-99.9,30.06,East,99,9.0,12.0,-999,-99.99,,,-99.99,,2013-04-18 22:03:00,
2013-04-18 18:13:00,76.0,-99.9,30.06,ESE,108,10.0,15.0,-999,-99.99,,,-99.99,,2013-04-18 22:13:00,
2013-04-18 18:23:00,76.0,-99.9,30.06,East,95,8.0,12.0,-999,-99.99,,,-99.99,,2013-04-18 22:23:00,
2013-04-18 18:33:00,76.0,-99.9,30.06,ESE,102,9.0,13.0,-999,-99.99,,,-99.99,,2013-04-18 22:33:00,
2013-04-18 18:42:00,75.0,-99.9,30.05,ESE,106,9.0,14.0,-999,-99.99,,,-99.99,,2013-04-18 22:42:00,
2013-04-18 18:53:00,75.0,-99.9,30.05,ESE,112,6.0,13.0,-999,-99.99,,,-99.99,,2013-04-18 22:53:00,
2013-04-18 19:04:00,74.0,-99.9,30.05,ESE,108,9.0,13.0,-999,-99.99,,,-99.99,,2013-04-18 23:04:00,
2013-04-18 19:12:00,74.0,-99.9,30.05,ESE,105,7.0,9.0,-999,-99.99,,,-99.99,,2013-04-18 23:12:00,
2013-04-18 19:22:00,74.0,-99.9,30.05,ESE,109,6.0,9.0,-999,-99.99,,,-99.99,,2013-04-18 23:22:00,
2013-04-18 19:32:00,74.0,-99.9,30.05,ESE,108,6.0,10.0,-999,-99.99,,,-99.99,,2013-04-18 23:32:00,
2013-04-18 19:42:00,74.0,-99.9,30.06,ESE,115,5.0,11.0,-999,-99.99,,,-99.99,,2013-04-18 23:42:00,
2013-04-18 19:52:00,74.0,-99.9,30.06,ESE,113,7.0,10.0,-999,-99.99,,,-99.99,,2013-04-18 23:52:00,
2013-04-18 20:01:00,73.0,-99.9,30.05,ESE,122,6.0,10.0,-999,-99.99,,,-99.99,,2013-04-19 00:01:00,
2013-04-18 20:12:00,73.0,-99.9,30.06,ESE,118,5.0,9.0,-999,-99.99,,,-99.99,,2013-04-19 00:12:00,
2013-04-18 20:22:00,73.0,-99.9,30.06,ESE,115,7.0,10.0,-999,-99.99,,,-99.99,,2013-04-19 00:22:00,
2013-04-18 20:32:00,73.0,-99.9,30.06,SE,127,5.0,7.0,-999,-99.99,,,-99.99,,2013-04-19 00:32:00,
2013-04-18 20:42:00,73.0,-99.9,30.06,SE,131,7.0,9.0,-999,-99.99,,,-99.99,,2013-04-19 00:42:00,
2013-04-18 20:52:00,73.0,-99.9,30.06,ESE,120,4.0,9.0,-999,-99.99,,,-99.99,,2013-04-19 00:52:00,
2013-04-18 21:01:00,73.0,-99.9,30.06,SE,126,6.0,10.0,-999,-99.99,,,-99.99,,2013-04-19 01:01:00,
2013-04-18 21:11:00,72.0,-99.9,30.07,SE,132,5.0,9.0,-999,-99.99,,,-99.99,,2013-04-19 01:11:00,
2013-04-18 21:21:00,72.0,-99.9,30.07,SE,139,5.0,9.0,-999,-99.99,,,-99.99,,2013-04-19 01:21:00,
2013-04-18 21:32:00,72.0,-99.9,30.07,SE,140,5.0,8.0,-999,-99.99,,,-99.99,,2013-04-19 01:32:00,
2013-04-18 21:42:00,72.0,-99.9,30.07,SE,135,8.0,11.0,-999,-99.99,,,-99.99,,2013-04-19 01:42:00,
2013-04-18 21:52:00,72.0,-99.9,30.07,SE,141,5.0,12.0,-999,-99.99,,,-99.99,,2013-04-19 01:52:00,
2013-04-18 22:02:00,72.0,-99.9,30.07,SE,142,6.0,9.0,-999,-99.99,,,-99.99,,2013-04-19 02:02:00,
2013-04-18 22:11:00,72.0,-99.9,30.08,SE,145,6.0,11.0,-999,-99.99,,,-99.99,,2013-04-19 02:11:00,
2013-04-18 22:21:00,72.0,-99.9,30.08,SE,141,5.0,9.0,-999,-99.99,,,-99.99,,2013-04-19 02:21:00,
2013-04-18 22:32:00,72.0,-99.9,30.08,SE,139,6.0,10.0,-999,-99.99,,,-99.99,,2013-04-19 02:32:00,
2013-04-18 22:42:00,72.0,-99.9,30.08,SSE,149,6.0,11.0,-999,-99.99,,,-99.99,,2013-04-19 02:42:00,
2013-04-18 22:52:00,72.0,-99.9,30.08,SSE,148,6.0,12.0,-999,-99.99,,,-99.99,,2013-04-19 02:52:00,
2013-04-18 23:01:00,72.0,-99.9,30.08,SSE,161,6.0,11.0,-999,-99.99,,,-99.99,,2013-04-19 03:01:00,
2013-04-18 23:12:00,72.0,-99.9,30.08,SSE,152,6.0,11.0,-999,-99.99,,,-99.99,,2013-04-19 03:12:00,
2013-04-18 23:22:00,72.0,-99.9,30.08,SSE,158,8.0,12.0,-999,-99.99,,,-99.99,,2013-04-19 03:22:00,
2013-04-18 23:33:00,72.0,-99.9,30.08,SSE,155,6.0,9.0,-999,-99.99,,,-99.99,,2013-04-19 03:33:00,
2013-04-18 23:43:00,72.0,-99.9,30.08,SSE,166,7.0,10.0,-999,-99.99,,,-99.99,,2013-04-19 03:43:00,
2013-04-18 23:54:00,72.0,-99.9,30.08,SSE,164,5.0,8.0,-999,-99.99,,,-99.99,,2013-04-19 03:54:00,